Погода в Баре

Черногория     42°05′16″N   19°06′28″E
темп.,
°C
ветер,
м/с
пор.,
м/с
влажн.,
%
обл.,
%
осадки,
мм/ч
давл.,
гПа
погр.,
м
24 октября, вс
вс2423:00+19всв6676100 0.3 1022267
02:00+19всв5572100 0.4 1022180
05:00+18всв5571100 0.0 1022215
08:00+17всв6665100 0.0 1023241
11:00+17св555967 0.0 1024354
14:00+19св33515 0.0 1023446
17:00+19всв3354100 0.0 1022212
20:00+18всв545330 0.0 1022280
25 октября, пн
пн2523:00+16св665646 0.0 1023248
02:00+15всв55560 0.0 1022198
05:00+15всв54520 0.0 1022183
08:00+15всв33470 0.0 1022171
11:00+16всв22390 0.0 1022268
14:00+17ссв11380 0.0 1021408
17:00+18с11390 0.0 1020341
20:00+18св11400 0.0 1021265
26 октября, вт
вт2623:00+17св21465 0.0 1021285
02:00+17в1149100 0.0 1021257
05:00+16всв2152100 0.0 1020321
08:00+16вюв2152100 0.0 1019286
11:00+17юз0149100 0.0 1019429
14:00+16зсз4458100 0.0 1019538
17:00+15ссз5568100 0.1 1019434
20:00+15в3364100 0.9 1020575
27 октября, ср
ср2723:00+16ссв226098 0.0 1020378
02:00+16с2357100 0.0 1020452
05:00+16вюв1057100 0.0 1020492
08:00+16св2259100 0.0 1021302
11:00+17в1158100 0.0 1021387
14:00+17зсз1155100 0.0 1021456
17:00+18сз2254100 0.0 1020375
20:00+18св0150100 0.0 1020268
28 октября, чт
чт2823:00+17св4456100 0.0 1019243
02:00+16всв5454100 0.0 1020225
05:00+15св5453100 0.0 1020231
08:00+15всв4352100 0.0 1021230
11:00+16всв324659 0.0 1022308
14:00+18зюз103954 0.0 1021369
17:00+17сз22447 0.0 1021445
20:00+18ссз225367 0.0 1021449